Location: Plainartige
(45.6866°N, 1.7993°E)
Time: 01:55:42
(UTC+00:00)

RS-15 - Pass Details

Date: 05 July 2022
Orbit: 1881 x 2163 km, 64.8° (Epoch: 10 August)

Event Time Altitude Azimuth Distance (km) Brightness Sun altitude
Rises 20:41:48 0° 314° (NW) 5,687 13.0 -8.5°
Reaches altitude 10° 20:45:36 10° 321° (NW) 4,690 11.7 -8.9°
Maximum altitude 20:57:24 46° 33° (NNE) 2,708 8.9 -10.3°
Drops below altitude 10° 21:08:53 10° 105° (ESE) 4,587 9.5 -11.6°
Enters shadow 21:10:44 - 108° (ESE) 5,073 9.7 -11.8°
